This is the latest recevied weather packets stored in our database for station/object KF0TNT. If no packets are shown the sender has not sent any weather packets the latest 10 day(s).
| Time | Temp. | Humidity | Pressure | Rain* | Wind** | Luminosity | Snow |
|---|---|---|---|---|---|---|---|
| 1778078417 | -2.22° C | 90% | 1018.2 hPa | 0 mm | - | 40 W/m² | - |
| 1778078115 | -2.22° C | 91% | 1018.4 hPa | 0 mm | - | 45 W/m² | - |
| 1778077813 | -2.78° C | 91% | 1018.4 hPa | 0 mm | - | 37 W/m² | - |
| 1778077510 | -2.22° C | 91% | 1018.6 hPa | 0 mm | - | 30 W/m² | - |
| 1778077208 | -2.22° C | 91% | 1018.5 hPa | 0 mm | - | 35 W/m² | - |
| 1778076906 | -2.22° C | 91% | 1018.4 hPa | 0 mm | - | 41 W/m² | - |
| 1778076604 | -2.78° C | 91% | 1018.4 hPa | 0 mm | - | 33 W/m² | - |
| 1778076301 | -2.78° C | 91% | 1018.2 hPa | 0 mm | - | 28 W/m² | - |
| 1778075997 | -2.78° C | 91% | 1018.1 hPa | 0 mm | - | 29 W/m² | - |
| 1778075694 | -2.78° C | 91% | 1018.4 hPa | 0 mm | - | 24 W/m² | - |
| 1778075390 | -2.78° C | 92% | 1017.9 hPa | 0 mm | - | 24 W/m² | - |
| 1778075086 | -2.78° C | 91% | 1018 hPa | 0 mm | - | 27 W/m² | - |
| 1778074783 | -2.78° C | 92% | 1018.2 hPa | 0 mm | - | 43 W/m² | - |
| 1778074481 | -2.78° C | 92% | 1018 hPa | 0 mm | - | 37 W/m² | - |
| 1778074177 | -2.78° C | 93% | 1018.2 hPa | 0 mm | - | 30 W/m² | - |
| 1778073874 | -2.78° C | 93% | 1018 hPa | 0 mm | - | 31 W/m² | - |
| 1778073572 | -2.78° C | 93% | 1017.6 hPa | 0 mm | - | 37 W/m² | - |
| 1778073268 | -3.33° C | 94% | 1017.6 hPa | 0 mm | - | 32 W/m² | - |
| 1778072965 | -3.33° C | 95% | 1017.6 hPa | 0 mm | - | 28 W/m² | - |
| 1778072661 | -3.33° C | 95% | 1017.5 hPa | 0 mm | - | 20 W/m² | - |
| 1778072360 | -3.33° C | 95% | 1017.4 hPa | 0 mm | - | 10 W/m² | - |
| 1778072058 | -3.33° C | 95% | 1017.7 hPa | 0 mm | - | 9 W/m² | - |
| 1778071756 | -3.33° C | 95% | 1017.6 hPa | 0 mm | - | 10 W/m² | - |
| 1778071453 | -3.33° C | 95% | 1017.6 hPa | 0 mm | - | 9 W/m² | - |
| 1778071151 | -3.33° C | 95% | 1017.3 hPa | 0 mm | - | 7 W/m² | - |
* Rain latest hour (hover to see other rain measurements)
** Current wind speed in m/s (hover to see current wind gust speed)